sat.trackr.live / text

‹ back to catalog

STARLINK-33951

NORAD 63803 · 2025-091AD

PAYLOAD ACTIVE UNKNOWN

§ Identity

Operator
Country
US
Launch date
2025-05-02
Launch site
AFETR
Launch vehicle
Mass (kg)
RCS (m²)

Purposes: comms

External: N2YO · Heavens-Above · Gunter

§ Orbital elements

Epoch: 2026-05-24T20:33:13.970016Z

Period
94.27 min
Inclination
43.0028°
Eccentricity
0.0001778
Mean motion
15.27584548 rev/d
Perigee alt
481.8 km
Apogee alt
484.3 km
Semi-major
6,861.2 km
B*
5.1634e-4
RAAN
342.1366°
Arg perigee
267.9625°
Mean anomaly
92.1023°
Rev number
6,060

§ Raw data

STARLINK-339511 63803U 25091AD  26144.85641169  .00013975  00000+0  51634-3 0  99902 63803  43.0028 342.1366 0001778 267.9625  92.1023 15.27584548 60602

JSON: /api/v1/satellites/63803 · /tle

For live sub-satellite position, see the globe view (requires WebGL).

§ Visibility from observer

Set your observer location to see the next 7 days of passes ≥ 10°. The values pass through the URL so the page stays shareable.

No JS? Fill the form by hand. The geolocation button needs JavaScript.